Find Starlink 34538

NORAD ID: 64689 Int'l Des: 2025-139 Owner: SPXS Country: US Constellation: starlink operational
LEOCIRCULAR

Current View

Loading 3D Globe...

About Starlink 34538

Description loading...

Upcoming Passes

Passes for default location (London). Set your location on the main map for personalized predictions.

Altitude History

Loading altitude history...

Two-Line Element Set

1 64689U 25139AB 26146.19991209 .00033556 00000-0 99962-3 0 9992
2 64689 53.1598 126.1315 0001084 105.0159 255.0963 15.34406585 52164
Epoch: May 26, 2026 • Age: 10 hours

Current Status

Altitude 477.1 km
Velocity 7.63 km/s
Sub-Earth Point -42.08°S, 125.88°W
Launch Date Jun 28, 2025
Age 0.9 years
Type internet

Technical Details

Classification Payload
Mass 575.00 kg
Dry Mass 530.00 kg
Total Mass 575.00 kg
Length 0.30 m
Diameter 4.10 m
Span 29.00 m
Shape Box + pan
Manufacturer SPXS
Bus Type Starlink V2MO
Phase Status In Orbit
Owner/State SPXS/US

Most Searched